Location: Keppel Henge
(44.7900°N, 80.9447°W)
Time: 18:29:54
(UTC-04:00)

ISS - Pass Details

Date: 15 October 2017
Orbit: 401 x 408 km, 51.6° (Epoch: 18 October)

Event Time Altitude Azimuth Distance (km) Brightness Sun altitude
Rises 20:09:10 0° 288° (WNW) 2,323 1.6 -16.8°
Reaches altitude 10° 20:11:50 10° 264° (W) 1,461 0.2 -17.3°
Maximum altitude 20:13:51 15° 226° (SW) 1,177 -1.0 -17.7°
Drops below altitude 10° 20:15:51 10° 188° (S) 1,457 -1.0 -18.0°
Enters shadow 20:16:51 - 177° (S) 1,738 -0.7 -18.2°
